Vertical_Velocity
-1 -0 -0 -1 -0 -1 -1 -1 -0 0 -1 -1 -0 -1 -1 -1 -0 -2 -9 -2 -6 -2 2 2 -4 -12 -5 -5 5 12 -1 -0 -1 -0 -3 -5 1 -7 17 -14 -7 -4 -7 -11 2
-1 -1 -1 -1 -1 -0 -1 -0 0 0 -1 -1 -1 -1 -1 -1 -2 -7 6 -3 -2 -2 -1 2 9 -3 -6 -0 -1 4 -1 -4 -3 -1 -3 -3 3 2 -4 1 4 3 6 -0 3
0 -0 -1 -1 -0 -1 -1 -1 1 1 -0 -1 -1 -1 -0 -1 -3 -13 -6 -3 -5 -1 -7 4 2 28 2 5 -0 0 -1 -0 -1 3 4 -1 3 0 -2 -1 3 -4 -3 2 0
-0 -1 -0 -1 -1 -1 -1 -0 0 1 0 -1 -1 0 1 -1 -1 5 0 -2 -3 -1 -0 -1 -7 12 2 1 -4 4 -0 3 -1 -3 0 1 7 3 -0 -4 1 -9 -9 -2 -4
-0 -1 -1 -1 -1 -1 -1 -1 -0 0 1 -0 -0 0 1 -1 -23 -3 -0 -2 -1 -3 -4 -2 5 4 1 1 0 1 0 1 -1 -1 -2 1 -0 4 3 -0 7 11 3 -2 0
0 -0 -0 -2 -1 -1 -1 -0 0 -0 0 0 -0 1 1 -1 -4 -0 -0 -1 -2 -4 -5 -1 -8 0 0 0 1 0 5 1 3 2 -0 0 -0 -12 -1 -2 5 -3 1 -3 4
-1 -0 0 -1 -1 -1 -0 0 0 -0 -0 1 1 1 -0 -35 16 2 -2 -1 -0 -7 -10 -1 29 20 4 -2 3 5 -4 -4 -1 -2 0 -2 -2 -1 -4 -28 -3 22 3 -1 6
-1 -1 -0 -0 -1 -1 -1 -1 -1 -0 0 1 0 0 -16 -0 15 10 -5 -6 -3 3 -2 9 7 7 11 -3 0 3 -2 -0 -0 1 4 -2 -4 -2 0 0 -1 4 3 -3 4
0 -0 -0 0 -1 -1 -1 -1 -0 0 1 1 1 2 -15 6 -6 -16 30 -10 -6 -7 8 -9 12 3 -7 -0 -9 -3 -2 1 7 -2 -1 -0 0 -5 -1 6 -2 1 -2 -0 4
-1 0 0 -0 -1 -1 -0 -0 1 1 0 1 4 4 -6 -20 -2 -14 6 -6 8 4 5 14 4 2 1 2 -5 -5 0 -3 -1 -2 3 3 3 -3 7 2 -1 -1 15 -1 -2
-0 -1 0 -1 0 -1 0 -0 0 1 -1 -19 -7 -2 10 -14 23 -8 9 -2 14 10 2 -6 3 -2 -0 -0 -4 2 3 1 0 0 -5 2 1 -3 -3 5 -2 -5 6 2 -5
-1 -0 -0 -1 0 -1 -2 -7 -13 41 3 -4 -6 -2 3 26 4 -1 10 15 10 -1 3 1 -2 -8 -1 3 4 1 2 -4 1 2 -8 1 -0 -1 1 -2 -5 -0 -1 0 1
-1 -1 -0 -1 1 -0 -3 -22 1 -3 2 -8 -11 -7 -4 -3 -2 -4 4 -2 -0 3 -0 1 -16 3 4 -0 1 -2 1 0 4 1 -2 -3 -1 -2 -4 3 -1 -0 1 -0 -2
-0 -0 -0 -1 -1 1 -13 5 -2 15 3 -4 3 -25 12 -12 -2 -7 -3 -10 3 -1 1 -3 -11 4 2 0 3 2 -1 1 -0 -3 -3 -9 -8 -3 -2 -2 1 0 -1 -0 4
0 -0 -1 -0 -1 -9 3 -2 -2 15 0 15 5 7 -9 -6 5 2 -9 18 -2 -4 9 -24 -0 1 1 -2 3 -6 2 2 1 1 -4 -2 -8 -19 -1 -4 -2 -1 -1 2 1
0 -0 -1 -1 -4 -1 6 10 4 4 -8 9 -0 -1 7 6 -6 15 -4 16 -5 5 -1 -4 -4 6 -3 -3 1 -3 -1 -1 0 -2 -4 -5 -8 -8 -3 -7 -0 -1 1 -2 1
-1 -1 -2 -1 -4 -6 11 13 1 4 -2 12 -3 -0 -0 -0 -0 0 1 4 -4 3 -0 -3 -8 -5 8 3 -3 1 -0 -4 -8 -0 -10 1 -0 -15 -4 -4 -3 -2 -2 -5 -0
-1 -2 -2 -3 1 0 6 3 6 -7 1 -0 -1 5 -3 -2 -2 -1 3 1 4 4 1 2 -18 4 -8 -6 -8 -2 -0 -3 -0 -1 -6 2 -2 -22 -5 6 -2 -4 12 5 6
-1 -1 -4 -4 -3 3 4 3 -2 4 6 0 3 3 1 3 -1 6 -1 -3 -4 -3 -5 2 -9 -2 1 -1 -7 -14 -1 -12 2 -1 0 -4 4 -9 4 7 -8 -5 -1 -0 6
0 -3 -7 3 -5 -2 3 -4 -1 3 -1 -4 2 2 1 -1 5 4 -0 -10 -4 -3 -1 -8 -4 -1 -3 3 1 -11 -10 -16 -6 -4 -2 -4 -1 -3 2 3 -0 -2 -3 2 2
-2 -0 6 -4 4 10 -0 -4 -1 10 -10 3 1 -1 2 3 2 -0 -4 -8 -1 -2 0 -0 -4 -15 -4 -1 -4 -2 0 -1 -7 -3 -4 -1 -10 -5 -4 -3 -2 -4 -1 -4 -5
-3 3 1 -4 7 -0 0 -3 1 -1 -0 1 2 3 2 0 0 -0 3 1 -0 4 -1 3 -1 -1 -5 -5 3 2 -1 -2 -5 -10 -2 -5 -14 -1 -2 -3 -2 -0 1 3 -5
-2 3 10 5 1 -1 -6 -6 4 -1 0 -2 0 1 -0 2 -4 2 -0 -3 3 0 0 -0 -5 -3 -17 -18 -4 -2 -2 0 -0 -3 -1 -0 -12 -0 0 1 7 0 6 15 23
-2 2 11 5 -6 7 1 -2 -1 0 -1 1 2 -1 -0 -1 -2 -2 -3 -4 2 4 -0 -4 0 -2 -3 -9 4 -2 -2 -2 1 0 -3 -3 -3 -3 1 -1 1 -1 2 -3 -7
9 4 12 -1 -1 -0 -1 2 -1 -1 -1 -0 -4 2 5 -1 -2 -0 -2 -8 -12 3 -4 2 -0 2 -2 -1 2 2 1 -2 4 -3 -1 -8 1 -3 -3 -4 -6 3 1 1 -3
-0 1 -13 -4 -1 2 -2 0 1 -1 1 -3 -1 1 1 1 4 1 3 0 2 -9 -0 -3 -4 -0 -3 -2 1 1 -1 0 -0 -3 -1 1 -4 2 1 -3 4 -0 1 -3 -2
-3 1 8 -7 -2 -4 4 4 2 -1 -5 8 5 0 -2 7 5 3 2 -0 0 6 -0 2 1 -2 -4 1 -2 -7 1 0 -3 -0 5 -0 1 0 -3 -0 2 -2 9 -3 -2
Height
1521 1520 1519 1518 1517 1517 1516 1516 1516 1516 1517 1517 1518 1518 1518 1517 1517 1516 1514 1516 1516 1517 1518 1520 1521 1518 1519 1516 1514 1514 1520 1529 1524 1521 1525 1518 1513 1504 1507 1508 1510 1511 1514 1521 1529
1521 1520 1519 1518 1517 1516 1515 1515 1515 1515 1515 1516 1516 1517 1517 1516 1515 1512 1513 1513 1515 1516 1517 1518 1518 1521 1520 1518 1512 1512 1520 1519 1511 1512 1515 1513 1514 1508 1507 1511 1515 1516 1522 1524 1529
1520 1519 1518 1517 1516 1516 1515 1514 1514 1513 1514 1514 1515 1516 1516 1515 1515 1508 1509 1511 1512 1515 1515 1516 1518 1521 1516 1513 1510 1508 1513 1505 1505 1507 1509 1509 1511 1509 1509 1516 1515 1517 1523 1525 1528
1519 1518 1516 1515 1515 1514 1514 1514 1513 1513 1512 1513 1514 1514 1515 1516 1516 1508 1508 1509 1511 1514 1514 1513 1515 1514 1512 1511 1508 1510 1505 1504 1505 1505 1506 1506 1508 1509 1508 1514 1514 1516 1520 1522 1525
1518 1516 1515 1514 1513 1513 1513 1513 1513 1512 1512 1512 1512 1513 1514 1515 1508 1507 1507 1509 1511 1512 1512 1512 1514 1512 1511 1507 1505 1505 1504 1504 1504 1505 1506 1506 1505 1505 1511 1514 1516 1516 1519 1521 1522
1516 1514 1513 1512 1511 1510 1511 1512 1512 1511 1511 1511 1511 1512 1513 1514 1505 1507 1507 1508 1510 1511 1511 1511 1510 1509 1508 1504 1504 1502 1503 1507 1504 1505 1505 1506 1506 1508 1512 1511 1513 1515 1517 1518 1520
1514 1512 1511 1510 1508 1508 1509 1510 1510 1511 1510 1510 1510 1510 1510 1504 1506 1506 1506 1507 1508 1509 1509 1507 1510 1509 1506 1504 1501 1501 1505 1500 1502 1503 1503 1503 1508 1507 1507 1509 1509 1514 1514 1516 1519
1511 1510 1508 1507 1506 1506 1507 1509 1510 1510 1510 1510 1510 1510 1504 1501 1504 1506 1505 1506 1508 1510 1509 1509 1508 1507 1505 1503 1502 1502 1508 1510 1492 1500 1502 1504 1518 1506 1505 1505 1506 1510 1512 1515 1518
1509 1507 1505 1505 1504 1504 1506 1507 1509 1509 1510 1510 1510 1510 1502 1499 1500 1502 1505 1506 1508 1508 1509 1508 1508 1507 1507 1512 1531 1513 1520 1508 1502 1495 1500 1505 1512 1509 1507 1505 1507 1508 1508 1512 1518
1506 1504 1503 1502 1502 1503 1504 1506 1508 1509 1509 1509 1510 1512 1498 1493 1496 1500 1502 1505 1506 1507 1508 1507 1507 1508 1506 1513 1538 1522 1505 1486 1493 1492 1496 1501 1517 1518 1513 1508 1509 1510 1508 1509 1514
1504 1501 1499 1499 1499 1501 1503 1506 1511 1510 1506 1498 1495 1491 1490 1491 1495 1498 1500 1503 1504 1505 1508 1503 1512 1516 1506 1502 1500 1502 1492 1490 1477 1481 1491 1511 1512 1504 1512 1513 1506 1508 1506 1506 1511
1500 1497 1495 1494 1495 1498 1500 1500 1497 1502 1495 1490 1491 1491 1487 1493 1495 1496 1500 1502 1502 1507 1502 1506 1512 1496 1493 1490 1495 1487 1490 1490 1477 1476 1485 1505 1510 1501 1496 1497 1500 1499 1502 1504 1508
1496 1493 1491 1490 1492 1495 1496 1495 1497 1497 1494 1484 1484 1488 1486 1490 1491 1494 1497 1499 1499 1504 1501 1507 1494 1484 1487 1491 1486 1485 1488 1485 1487 1479 1488 1500 1511 1506 1494 1486 1487 1491 1494 1499 1501
1494 1491 1490 1490 1494 1494 1494 1495 1500 1501 1504 1481 1482 1484 1484 1487 1488 1488 1492 1498 1497 1501 1496 1495 1483 1483 1482 1484 1482 1496 1472 1473 1478 1491 1526 1502 1542 1506 1489 1493 1481 1481 1485 1492 1496
1492 1491 1490 1491 1492 1492 1493 1494 1499 1503 1526 1477 1477 1476 1480 1483 1481 1483 1488 1493 1496 1493 1492 1494 1484 1481 1483 1480 1474 1484 1472 1475 1477 1491 1510 1512 1532 1505 1493 1493 1482 1476 1477 1483 1489
1491 1490 1490 1491 1492 1492 1493 1497 1500 1510 1515 1471 1469 1475 1479 1480 1478 1479 1486 1490 1491 1491 1486 1483 1475 1473 1473 1469 1469 1468 1473 1476 1479 1493 1537 1501 1517 1506 1497 1481 1476 1475 1474 1477 1483
1491 1490 1490 1491 1492 1491 1494 1498 1511 1514 1457 1471 1473 1472 1477 1480 1479 1478 1484 1490 1499 1508 1504 1483 1476 1468 1468 1475 1468 1470 1483 1522 1526 1519 1517 1492 1511 1488 1460 1465 1466 1471 1470 1475 1479
1490 1490 1491 1491 1492 1492 1493 1499 1516 1472 1459 1450 1462 1468 1478 1473 1475 1474 1480 1489 1481 1485 1494 1499 1497 1462 1460 1470 1478 1477 1485 1517 1529 1527 1501 1487 1496 1481 1463 1468 1474 1483 1480 1470 1474
1490 1490 1489 1490 1492 1493 1496 1508 1491 1472 1461 1460 1458 1471 1474 1465 1466 1470 1473 1475 1468 1472 1496 1489 1483 1453 1451 1455 1464 1477 1491 1473 1495 1486 1500 1483 1467 1464 1463 1469 1473 1469 1468 1471 1472
1490 1490 1487 1489 1492 1494 1497 1501 1483 1467 1463 1464 1476 1460 1469 1464 1465 1467 1468 1457 1459 1454 1458 1466 1488 1457 1451 1452 1455 1465 1461 1494 1496 1515 1513 1490 1479 1483 1472 1472 1465 1455 1455 1461 1467
1491 1490 1485 1487 1492 1494 1500 1488 1473 1466 1466 1471 1472 1472 1469 1467 1462 1462 1459 1451 1448 1448 1447 1454 1469 1473 1457 1462 1468 1467 1474 1472 1480 1490 1511 1514 1495 1452 1459 1457 1454 1448 1450 1454 1461
1492 1490 1487 1489 1492 1489 1488 1477 1469 1466 1466 1466 1466 1467 1468 1464 1467 1467 1466 1458 1453 1452 1461 1457 1461 1482 1471 1453 1447 1449 1459 1466 1498 1496 1487 1489 1490 1438 1446 1446 1442 1444 1453 1450 1454
1491 1488 1486 1488 1493 1487 1478 1471 1465 1468 1469 1471 1468 1468 1468 1471 1479 1467 1461 1455 1456 1455 1462 1460 1477 1496 1486 1468 1453 1460 1455 1455 1459 1467 1485 1502 1488 1441 1440 1451 1448 1444 1449 1452 1457
1492 1486 1485 1486 1485 1483 1480 1473 1471 1469 1470 1470 1472 1473 1473 1474 1469 1472 1467 1457 1458 1455 1454 1456 1469 1484 1501 1485 1466 1473 1461 1456 1461 1481 1481 1479 1467 1450 1451 1446 1445 1451 1446 1449 1457
1496 1490 1493 1488 1485 1483 1480 1479 1478 1476 1476 1475 1477 1477 1481 1483 1479 1479 1473 1469 1464 1464 1465 1462 1476 1470 1470 1464 1461 1464 1464 1457 1463 1464 1475 1463 1456 1445 1442 1438 1434 1436 1446 1446 1448
1503 1503 1498 1493 1485 1482 1482 1483 1482 1483 1486 1485 1486 1484 1483 1488 1490 1492 1486 1484 1479 1468 1473 1468 1481 1475 1478 1464 1461 1463 1458 1457 1455 1451 1451 1452 1455 1439 1443 1435 1430 1436 1439 1442 1446
1511 1507 1506 1492 1486 1485 1489 1489 1488 1488 1487 1487 1489 1489 1489 1489 1488 1486 1484 1481 1478 1478 1476 1478 1480 1486 1491 1474 1471 1481 1464 1459 1455 1452 1450 1462 1455 1448 1445 1444 1445 1445 1444 1441 1444